Weather History for Sidney, NE

Change the Weather History Date:

Friday, September 6, 2013

  Actual Average Record
Temperature  
Mean Temperature 84 °F 68 °F  
Max Temperature 102 °F 84 °F 102 °F (2013)
Min Temperature 65 °F 53 °F 37 °F (1956)
Degree Days  
Heating Degree Days 0 2  
Month to date heating degree days 0 7  
Since 1 July heating degree days 9 18  
Cooling Degree Days 19 5  
Month to date cooling degree days 80 32  
Year to date cooling degree days 843 774  
Growing Degree Days 33 (Base 50)    
Moisture  
Dew Point 51 °F    
Average Humidity 45    
Maximum Humidity 73    
Minimum Humidity 17    
Precipitation  
Precipitation 0.02 in 0.06 in 0.64 in (2008)
Month to date precipitation 0.04 0.35  
Year to date precipitation 8.21 15.51  
Sea Level Pressure  
Sea Level Pressure 29.94 in    
Wind  
Wind Speed 9 mph (NNW)    
Max Wind Speed 26 mph    
Max Gust Speed 32 mph    
Visibility 10 miles    
Events Rain , Thunderstorm    
T = Trace of Precipitation, MM = Missing Value Source: NWS Daily Summary

Daily Weather History Graph

Daily Weather History Graph

Search for Another Location

Airport:

Trip Planner

Search our weather history database for the weather conditions in past years. The results will help you decide how hot, cold, wet, or windy it might be!

Date:

Astronomy

Sep. 06, 2013 Rise Set
Actual Time 6:23 AM MDT 7:15 PM MDT
Civil Twilight 5:55 AM MDT 7:43 PM MDT
Nautical Twilight 5:22 AM MDT 8:16 PM MDT
Astronomical Twilight 4:47 AM MDT 8:51 PM MDT
Moon 7:39 AM MDT (9/6) 7:39 PM MDT (9/6)
Length of Visible Light 13h 47m
Length of Day
12h 52m
New Moon, 2% of the Moon is Illuminated
Sep 6
New Moon
Sep 12
First Quarter
Sep 19
Full
Sep 26
Last Quarter
Oct 4
New

Hourly Weather History & Observations

Time (MDT) Temp. Heat Index Dew Point Humidity Pressure Visibility Wind Dir Wind Speed Gust Speed Precip Events Conditions
12:53 AM 73.9 °F - 45.0 °F 35% 29.92 in 10.0 mi SSW 10.4 mph - N/A   Clear
1:53 AM 73.0 °F - 46.0 °F 38% 29.91 in 10.0 mi SSW 11.5 mph - N/A   Clear
2:53 AM 75.9 °F - 48.0 °F 37% 29.91 in 10.0 mi SW 12.7 mph - N/A   Clear
3:53 AM 73.9 °F - 48.9 °F 41% 29.91 in 10.0 mi SW 8.1 mph - N/A   Clear
4:53 AM 73.0 °F - 46.9 °F 39% 29.90 in 10.0 mi SW 10.4 mph - N/A   Clear
5:53 AM 70.0 °F - 48.9 °F 47% 29.91 in 10.0 mi WNW 8.1 mph - N/A   Clear
6:53 AM 66.9 °F - 51.1 °F 57% 29.95 in 10.0 mi NNW 4.6 mph - N/A   Clear
7:53 AM 77.0 °F - 52.0 °F 42% 29.94 in 10.0 mi WNW 3.5 mph - N/A   Clear
8:53 AM 82.9 °F 81.8 °F 53.1 °F 36% 29.95 in 10.0 mi WNW 6.9 mph - N/A   Clear
9:53 AM 91.9 °F - 51.1 °F 25% 29.94 in 10.0 mi NNW 3.5 mph - N/A   Clear
10:53 AM 97.0 °F - 50.0 °F 20% 29.92 in 10.0 mi North 6.9 mph - N/A   Clear
11:53 AM 99.0 °F - 51.1 °F 20% 29.90 in 10.0 mi NNE 5.8 mph - N/A   Clear
12:53 PM 100.9 °F - 50.0 °F 18% 29.88 in 10.0 mi NNW 8.1 mph 18.4 mph N/A   Mostly Cloudy
1:53 PM 100.0 °F - 50.0 °F 18% 29.87 in 10.0 mi ENE 12.7 mph - N/A   Mostly Cloudy
2:06 PM 100.4 °F - 50.0 °F 18% 30.07 in 10.0 mi ENE 15.0 mph - N/A Thunderstorm Thunderstorm
2:39 PM 100.4 °F - 48.2 °F 17% 30.06 in 10.0 mi East 10.4 mph - N/A   Partly Cloudy
2:53 PM 99.0 °F - 46.9 °F 17% 29.85 in 10.0 mi East 9.2 mph - N/A   Partly Cloudy
3:24 PM 95.0 °F - 48.2 °F 20% 30.06 in 10.0 mi North 15.0 mph - N/A   Scattered Clouds
3:53 PM 95.0 °F - 48.9 °F 21% 29.85 in 10.0 mi North 10.4 mph - N/A   Clear
4:53 PM 98.1 °F - 48.0 °F 18% 29.83 in 10.0 mi NNE 11.5 mph - N/A   Clear
5:53 PM 96.1 °F - 48.0 °F 19% 29.83 in 10.0 mi NNE 11.5 mph - N/A   Clear
6:53 PM 90.0 °F - 48.9 °F 24% 29.85 in 10.0 mi NE 6.9 mph - N/A   Clear
7:17 PM 87.8 °F - 50.0 °F 27% 30.04 in 10.0 mi WNW 13.8 mph 19.6 mph N/A Thunderstorm Thunderstorm
7:27 PM 84.2 °F - 51.8 °F 33% 30.06 in 10.0 mi WNW 19.6 mph 32.2 mph N/A   Partly Cloudy
7:41 PM 77.0 °F - 57.2 °F 50% 30.05 in 5.0 mi NW 18.4 mph - 0.02 in Rain , Thunderstorm Thunderstorms and Rain
7:53 PM 78.1 °F - 57.0 °F 48% 29.88 in 10.0 mi West 19.6 mph 32.2 mph 0.02 in Rain Light Rain
8:10 PM 78.8 °F - 55.4 °F 44% 30.06 in 10.0 mi NW 20.7 mph 24.2 mph 0.00 in Thunderstorm Clear
8:28 PM 77.0 °F - 57.2 °F 50% 30.07 in 10.0 mi North 11.5 mph - 0.00 in   Clear
8:53 PM 77.0 °F - 55.9 °F 48% 29.89 in 10.0 mi North 15.0 mph - 0.00 in   Clear
9:53 PM 73.9 °F - 57.0 °F 55% 29.90 in 10.0 mi NNW 15.0 mph - N/A   Clear
10:53 PM 72.0 °F - 57.0 °F 59% 29.90 in 10.0 mi NNW 9.2 mph - N/A   Clear
11:53 PM 66.9 °F - 57.0 °F 70% 29.90 in 10.0 mi Calm Calm - N/A   Clear